Hatteras, NC

7:37 PM EDT on April 27, 2017 (GMT -0400)
Mitchell

Weather History for KHSE - August, 2014

Change the Weather History Date:

Sunday, August 10, 2014

  Actual Average Record
Temperature  
Mean Temperature 81 °F 79 °F  
Max Temperature 88 °F 85 °F 93 °F (2016)
Min Temperature 74 °F 73 °F 64 °F (1975)
Cooling Degree Days 16 14  
Month to date cooling degree days 126 140  
Year to date cooling degree days 1073 1028  
Since 1 June cooling degree days 837 885  
Growing Degree Days 31 (Base 50)    
Moisture  
Dew Point 67 °F    
Average Humidity 67    
Maximum Humidity 87    
Minimum Humidity 46    
Precipitation  
Precipitation T in 0.21 in 2.29 in (1996)
Month to date precipitation 5.71 2.06  
Year to date precipitation 36.71 32.32  
Snow  
Snow 0.00 in - - ()
Month to date snowfall 0.0  
Since 1 July snowfall 0.0  
Snow Depth 0.00 in    
Sea Level Pressure  
Sea Level Pressure 30.07 in    
Wind  
Wind Speed 8 mph (East)    
Max Wind Speed 14 mph    
Max Gust Speed 18 mph    
Visibility 10 miles    
Events      
T = Trace of Precipitation, MM = Missing Value Source: NWS Daily Summary

Daily Weather History Graph

Daily Weather History Graph

Search for Another Location

Airport or City:

Trip Planner

Search our weather history database for the weather conditions in past years. The results will help you decide how hot, cold, wet, or windy it might be!

Date:

Astronomy

Aug. 10, 2014 Rise Set
Actual Time 6:18 AM EDT 7:56 PM EDT
Civil Twilight 5:51 AM EDT 8:23 PM EDT
Nautical Twilight 5:18 AM EDT 8:56 PM EDT
Astronomical Twilight 4:43 AM EDT 9:31 PM EDT
Moon 7:45 PM EDT (8/10) 6:06 AM EDT (8/10)
Length of Visible Light 14h 32m
Length of Day
13h 38m
Full, 100% of the Moon is Illuminated
Aug 10
Full
Aug 10
Full
Aug 17
Last Quarter
Aug 25
New
Sep 2
First Quarter

Hourly Weather History & Observations

Time (EDT) Temp. Heat Index Dew Point Humidity Pressure Visibility Wind Dir Wind Speed Gust Speed Precip Events Conditions
12:51 AM 75.0 °F - 68.0 °F 79% 30.08 in 10.0 mi ENE 5.8 mph - N/A   Clear
1:51 AM 75.0 °F - 68.0 °F 79% 30.08 in 10.0 mi ENE 5.8 mph - N/A   Scattered Clouds
2:51 AM 75.0 °F - 70.0 °F 84% 30.06 in 10.0 mi ENE 5.8 mph - N/A   Overcast
3:51 AM 75.0 °F - 71.1 °F 87% 30.06 in 10.0 mi NE 5.8 mph - N/A   Overcast
4:51 AM 75.0 °F - 71.1 °F 87% 30.05 in 10.0 mi ENE 6.9 mph - 0.00 in   Overcast
5:51 AM 75.0 °F - 70.0 °F 84% 30.06 in 10.0 mi NE 3.5 mph - N/A   Overcast
6:51 AM 75.9 °F - 66.0 °F 71% 30.06 in 10.0 mi East 8.1 mph - N/A   Overcast
7:51 AM 78.1 °F - 66.9 °F 68% 30.08 in 10.0 mi East 6.9 mph - N/A   Overcast
8:51 AM 80.1 °F 82.3 °F 66.9 °F 64% 30.09 in 10.0 mi East 9.2 mph - N/A   Overcast
10:51 AM 82.9 °F 85.0 °F 66.0 °F 56% 30.09 in 10.0 mi ESE 10.4 mph - N/A   Overcast
11:51 AM 84.9 °F 86.6 °F 64.9 °F 51% 30.10 in 10.0 mi East 9.2 mph - N/A   Scattered Clouds
12:51 PM 87.1 °F 88.9 °F 64.9 °F 48% 30.09 in 10.0 mi ESE 10.4 mph - N/A   Mostly Cloudy
1:51 PM 86.0 °F 87.6 °F 64.9 °F 49% 30.08 in 10.0 mi ESE 11.5 mph - N/A   Mostly Cloudy
2:51 PM 84.9 °F 87.1 °F 66.0 °F 53% 30.08 in 10.0 mi ESE 11.5 mph - N/A   Mostly Cloudy
3:51 PM 82.9 °F 84.6 °F 64.9 °F 54% 30.07 in 10.0 mi East 11.5 mph - N/A   Partly Cloudy
5:51 PM 82.0 °F 84.9 °F 68.0 °F 62% 30.06 in 10.0 mi ENE 6.9 mph - N/A   Clear
6:51 PM 79.0 °F - 68.0 °F 69% 30.06 in 10.0 mi ENE 4.6 mph - N/A   Clear
8:51 PM 75.9 °F - 64.9 °F 69% 30.06 in 10.0 mi East 6.9 mph - N/A   Clear
9:51 PM 75.0 °F - 64.0 °F 69% 30.07 in 10.0 mi East 5.8 mph - N/A   Clear
10:51 PM 75.0 °F - 66.0 °F 73% 30.08 in 10.0 mi East 5.8 mph - N/A   Clear